Main page
METAR-TAF:

METAR-TAF

Airports :

Pittsfield Penstone Municipal Airport

Pittsfield, Illinois, United States

latitude: 39-38-20N, longitude: 090-46-42W, elevation: 708 ft

Current weather observation

The report was made 36 minutes ago, at 19:35 UTC
Wind 8 mph from the South/Southwest
Temperature 86°F
Humidity 55%
Pressure 29.96 in. Hg
Visibility: 10 miles
Scattered clouds at a height of 4400 ft

METAR: KPPQ 191935Z AUTO 21007KT 10SM SCT044 30/20 A2996 RMK AO2 T03000203

Time: 15:11 (20:11 UTC)


TAF: missing

Weather observations and forecasts of more than 4000 airports (METAR and TAF reports).

The available stations are represented by yellow and red dots on the map.

Hover mouse over dot to see the name of the station.

Then click to see weather observations and forecasts.

To change the map : click on the green buttons with a black cross to zoom in, on the green button with a dash to zoom out, or on the green arrows for adjacent maps.


METAR-TAF: